contact:dominique.lefevre@mio.osupytheas.fr, maurice.libes@osupytheas.fr, didier.mallarino@osupytheas.fr
Project:EMSO http://www.emso-fr.org/EMSO-France
Depth: 2436.0 m
Title:EMSO Ligure Ouest : Data MII capteur CSTAR
DateTime,Latitude,Longitude,Instrument_Serial,Reference_Counts,Signal_Counts,Corrected_Signal_raw_counts,Calculated_Beam_c_inverse_meters,Internal_thermistor_counts
DateTime,Latitude,Longitude,Instrument_Serial,Reference_Counts,Signal_Counts,Corrected_Signal_raw_counts,Calculated_Beam_c_inverse_meters,Internal_thermistor_counts
2022-12-16T00:02:26,42.805,6.029,CST-1368DR,4447,5004,11962,01.066,551
2022-12-16T00:05:27,42.805,6.029,CST-1368DR,4447,5005,11966,01.065,551
2022-12-16T00:08:29,42.805,6.029,CST-1368DR,4447,5005,11966,01.065,550
2022-12-16T00:11:31,42.805,6.029,CST-1368DR,4447,5006,11967,01.065,551
2022-12-16T00:14:32,42.805,6.029,CST-1368DR,4447,5003,11962,01.066,551
2022-12-16T00:17:34,42.805,6.029,CST-1368DR,4447,5006,11969,01.064,551
2022-12-16T00:20:35,42.805,6.029,CST-1368DR,4447,5005,11966,01.065,551
2022-12-16T00:23:37,42.805,6.029,CST-1368DR,4447,5005,11965,01.065,551
2022-12-16T00:26:39,42.805,6.029,CST-1368DR,4447,5004,11963,01.066,551
2022-12-16T00:29:40,42.805,6.029,CST-1368DR,4447,5006,11968,01.064,551
2022-12-16T00:32:42,42.805,6.029,CST-1368DR,4447,5003,11961,01.067,551
2022-12-16T00:35:43,42.805,6.029,CST-1368DR,4447,5005,11966,01.065,551
2022-12-16T00:38:45,42.805,6.029,CST-1368DR,4447,5005,11965,01.065,551
2022-12-16T00:41:46,42.805,6.029,CST-1368DR,4447,5005,11966,01.065,551
2022-12-16T00:44:48,42.805,6.029,CST-1368DR,4447,5005,11966,01.065,551
2022-12-16T00:47:50,42.805,6.029,CST-1368DR,4447,5005,11966,01.065,551
2022-12-16T00:50:51,42.805,6.029,CST-1368DR,4447,5006,11967,01.065,551
2022-12-16T00:53:53,42.805,6.029,CST-1368DR,4447,5003,11962,01.066,551
2022-12-16T00:56:54,42.805,6.029,CST-1368DR,4447,5004,11963,01.066,551
2022-12-16T00:59:56,42.805,6.029,CST-1368DR,4447,5004,11964,01.066,551
2022-12-16T01:02:58,42.805,6.029,CST-1368DR,4447,5005,11966,01.065,551
2022-12-16T01:05:59,42.805,6.029,CST-1368DR,4447,5005,11965,01.065,551
2022-12-16T01:09:01,42.805,6.029,CST-1368DR,4447,5006,11967,01.065,551
2022-12-16T01:12:02,42.805,6.029,CST-1368DR,4447,5004,11963,01.066,551
2022-12-16T01:15:04,42.805,6.029,CST-1368DR,4447,5006,11967,01.065,551
2022-12-16T01:18:06,42.805,6.029,CST-1368DR,4447,5006,11967,01.065,551
2022-12-16T01:21:07,42.805,6.029,CST-1368DR,4447,5006,11967,01.065,551
2022-12-16T01:24:09,42.805,6.029,CST-1368DR,4447,5006,11967,01.065,551
2022-12-16T01:27:10,42.805,6.029,CST-1368DR,4447,5003,11960,01.067,551
2022-12-16T01:30:12,42.805,6.029,CST-1368DR,4447,5004,11963,01.066,551
2022-12-16T01:33:13,42.805,6.029,CST-1368DR,4447,5003,11962,01.066,551
2022-12-16T01:36:15,42.805,6.029,CST-1368DR,4447,5002,11959,01.067,551
2022-12-16T01:39:17,42.805,6.029,CST-1368DR,4446,5003,11963,01.066,551
2022-12-16T01:42:18,42.805,6.029,CST-1368DR,4446,5003,11963,01.066,551
2022-12-16T01:45:20,42.805,6.029,CST-1368DR,4447,5005,11966,01.065,551
2022-12-16T01:48:21,42.805,6.029,CST-1368DR,4447,5006,11968,01.064,551
2022-12-16T01:51:23,42.805,6.029,CST-1368DR,4447,5006,11967,01.065,551
2022-12-16T01:54:24,42.805,6.029,CST-1368DR,4446,5004,11966,01.065,551
2022-12-16T01:57:26,42.805,6.029,CST-1368DR,4446,5003,11963,01.066,551
2022-12-16T02:00:28,42.805,6.029,CST-1368DR,4446,5003,11963,01.066,551
2022-12-16T02:03:29,42.805,6.029,CST-1368DR,4446,5003,11964,01.066,551
2022-12-16T02:06:31,42.805,6.029,CST-1368DR,4446,5003,11963,01.066,551
2022-12-16T02:09:32,42.805,6.029,CST-1368DR,4446,5003,11963,01.066,551
2022-12-16T02:12:34,42.805,6.029,CST-1368DR,4446,5007,11972,01.063,551
2022-12-16T02:15:36,42.805,6.029,CST-1368DR,4446,4999,11955,01.069,551
2022-12-16T02:18:37,42.805,6.029,CST-1368DR,4446,5002,11962,01.066,551
2022-12-16T02:21:39,42.805,6.029,CST-1368DR,4446,5002,11962,01.066,551
2022-12-16T02:24:40,42.805,6.029,CST-1368DR,4446,5004,11965,01.065,551
2022-12-16T02:27:42,42.805,6.029,CST-1368DR,4446,5003,11964,01.066,551
2022-12-16T02:30:44,42.805,6.029,CST-1368DR,4446,5004,11966,01.065,551
2022-12-16T02:33:45,42.805,6.029,CST-1368DR,4446,5002,11961,01.067,551
2022-12-16T02:36:47,42.805,6.029,CST-1368DR,4446,5003,11963,01.066,551
2022-12-16T02:39:48,42.805,6.029,CST-1368DR,4446,5006,11971,01.063,551
2022-12-16T02:42:50,42.805,6.029,CST-1368DR,4446,5003,11963,01.066,551
2022-12-16T02:45:51,42.805,6.029,CST-1368DR,4446,5001,11959,01.067,551
2022-12-16T02:48:53,42.805,6.029,CST-1368DR,4446,5001,11959,01.067,551
2022-12-16T02:51:55,42.805,6.029,CST-1368DR,4446,5002,11962,01.066,551
2022-12-16T02:54:56,42.805,6.029,CST-1368DR,4446,5002,11962,01.066,551
2022-12-16T02:57:58,42.805,6.029,CST-1368DR,4446,5001,11959,01.067,551
2022-12-16T03:00:59,42.805,6.029,CST-1368DR,4446,5003,11963,01.066,551
2022-12-16T03:04:01,42.805,6.029,CST-1368DR,4446,5004,11965,01.065,551
2022-12-16T03:07:02,42.805,6.029,CST-1368DR,4446,5004,11965,01.065,551
2022-12-16T03:10:04,42.805,6.029,CST-1368DR,4446,5004,11966,01.065,551
2022-12-16T03:13:06,42.805,6.029,CST-1368DR,4446,5002,11960,01.067,551
2022-12-16T03:16:07,42.805,6.029,CST-1368DR,4446,5003,11962,01.066,551
2022-12-16T03:19:09,42.805,6.029,CST-1368DR,4446,5002,11962,01.066,551
2022-12-16T03:22:10,42.805,6.029,CST-1368DR,4446,4999,11955,01.069,551
2022-12-16T03:25:12,42.805,6.029,CST-1368DR,4446,5003,11962,01.066,551
2022-12-16T03:28:14,42.805,6.029,CST-1368DR,4446,5002,11960,01.067,551
2022-12-16T03:31:15,42.805,6.029,CST-1368DR,4446,5005,11968,01.064,551
2022-12-16T03:34:17,42.805,6.029,CST-1368DR,4446,5004,11965,01.065,551
2022-12-16T03:37:18,42.805,6.029,CST-1368DR,4446,5003,11962,01.066,551
2022-12-16T03:40:20,42.805,6.029,CST-1368DR,4446,5002,11962,01.066,551
2022-12-16T03:43:22,42.805,6.029,CST-1368DR,4446,5002,11961,01.067,551
2022-12-16T03:46:23,42.805,6.029,CST-1368DR,4446,5003,11964,01.066,551
2022-12-16T03:49:25,42.805,6.029,CST-1368DR,4446,5001,11959,01.067,551
2022-12-16T03:52:26,42.805,6.029,CST-1368DR,4446,5002,11961,01.067,551
2022-12-16T03:55:28,42.805,6.029,CST-1368DR,4446,5003,11962,01.066,551
2022-12-16T03:58:29,42.805,6.029,CST-1368DR,4446,5002,11960,01.067,551
2022-12-16T04:01:31,42.805,6.029,CST-1368DR,4446,5002,11962,01.066,551
2022-12-16T04:04:33,42.805,6.029,CST-1368DR,4446,5001,11959,01.067,551
2022-12-16T04:07:34,42.805,6.029,CST-1368DR,4446,5001,11958,01.068,551
2022-12-16T04:10:36,42.805,6.029,CST-1368DR,4446,5001,11959,01.067,551
2022-12-16T04:13:37,42.805,6.029,CST-1368DR,4446,5002,11961,01.067,551
2022-12-16T04:16:39,42.805,6.029,CST-1368DR,4446,5001,11959,01.067,551
2022-12-16T04:19:41,42.805,6.029,CST-1368DR,4446,5001,11959,01.067,551
2022-12-16T04:22:42,42.805,6.029,CST-1368DR,4446,4999,11953,01.069,551
2022-12-16T04:25:44,42.805,6.029,CST-1368DR,4446,5006,11971,01.063,551
2022-12-16T04:28:45,42.805,6.029,CST-1368DR,4446,5002,11961,01.067,551
2022-12-16T04:31:47,42.805,6.029,CST-1368DR,4446,5002,11961,01.067,551
2022-12-16T04:34:48,42.805,6.029,CST-1368DR,4446,5004,11965,01.065,551
2022-12-16T04:37:50,42.805,6.029,CST-1368DR,4446,5001,11959,01.067,551
2022-12-16T04:40:52,42.805,6.029,CST-1368DR,4446,5002,11960,01.067,551
2022-12-16T04:43:53,42.805,6.029,CST-1368DR,4446,5002,11960,01.067,551
2022-12-16T04:46:55,42.805,6.029,CST-1368DR,4446,5002,11961,01.067,551
2022-12-16T04:49:56,42.805,6.029,CST-1368DR,4446,5000,11956,01.068,551
2022-12-16T04:52:58,42.805,6.029,CST-1368DR,4446,5000,11957,01.068,551
2022-12-16T04:56:00,42.805,6.029,CST-1368DR,4446,4997,11949,01.071,551
2022-12-16T04:59:01,42.805,6.029,CST-1368DR,4446,5000,11957,01.068,551
2022-12-16T05:02:03,42.805,6.029,CST-1368DR,4446,5005,11968,01.064,551
2022-12-16T05:05:04,42.805,6.029,CST-1368DR,4446,5001,11959,01.067,551
2022-12-16T05:08:06,42.805,6.029,CST-1368DR,4446,5004,11965,01.065,551
2022-12-16T05:11:07,42.805,6.029,CST-1368DR,4446,5002,11961,01.067,551
2022-12-16T05:14:09,42.805,6.029,CST-1368DR,4446,5001,11959,01.067,551
2022-12-16T05:17:11,42.805,6.029,CST-1368DR,4446,5004,11965,01.065,551
2022-12-16T05:20:12,42.805,6.029,CST-1368DR,4446,5003,11962,01.066,551
2022-12-16T05:23:14,42.805,6.029,CST-1368DR,4446,5002,11960,01.067,551
2022-12-16T05:26:15,42.805,6.029,CST-1368DR,4446,5001,11958,01.068,551
2022-12-16T05:29:17,42.805,6.029,CST-1368DR,4446,5001,11958,01.068,551
2022-12-16T05:32:19,42.805,6.029,CST-1368DR,4446,5003,11962,01.066,551
2022-12-16T05:35:20,42.805,6.029,CST-1368DR,4446,5004,11966,01.065,551
2022-12-16T05:38:22,42.805,6.029,CST-1368DR,4446,5002,11961,01.067,551
2022-12-16T05:41:23,42.805,6.029,CST-1368DR,4446,5001,11958,01.068,551
2022-12-16T05:44:25,42.805,6.029,CST-1368DR,4446,5001,11958,01.068,551
2022-12-16T05:47:26,42.805,6.029,CST-1368DR,4446,5002,11961,01.067,551
2022-12-16T05:50:28,42.805,6.029,CST-1368DR,4446,5002,11962,01.066,551
2022-12-16T05:53:30,42.805,6.029,CST-1368DR,4446,5003,11962,01.066,551
2022-12-16T05:56:31,42.805,6.029,CST-1368DR,4446,5002,11962,01.066,551
2022-12-16T05:59:33,42.805,6.029,CST-1368DR,4446,5000,11956,01.068,551
2022-12-16T06:02:34,42.805,6.029,CST-1368DR,4446,5005,11969,01.064,551
2022-12-16T06:05:36,42.805,6.029,CST-1368DR,4446,5004,11965,01.065,551
2022-12-16T06:08:38,42.805,6.029,CST-1368DR,4446,5004,11965,01.065,551
2022-12-16T06:11:39,42.805,6.029,CST-1368DR,4446,5004,11966,01.065,551
2022-12-16T06:14:41,42.805,6.029,CST-1368DR,4446,5004,11966,01.065,551
2022-12-16T06:17:42,42.805,6.029,CST-1368DR,4446,5005,11968,01.064,551
2022-12-16T06:20:44,42.805,6.029,CST-1368DR,4446,5005,11968,01.064,551
2022-12-16T06:23:46,42.805,6.029,CST-1368DR,4446,5002,11960,01.067,551
2022-12-16T06:26:47,42.805,6.029,CST-1368DR,4446,5001,11958,01.068,551
2022-12-16T06:29:49,42.805,6.029,CST-1368DR,4446,5004,11965,01.065,551
2022-12-16T06:32:50,42.805,6.029,CST-1368DR,4446,5002,11961,01.067,551
2022-12-16T06:35:52,42.805,6.029,CST-1368DR,4446,5004,11965,01.065,551
2022-12-16T06:38:53,42.805,6.029,CST-1368DR,4446,5002,11960,01.067,551
2022-12-16T06:41:55,42.805,6.029,CST-1368DR,4446,4997,11949,01.071,551
2022-12-16T06:44:57,42.805,6.029,CST-1368DR,4446,5002,11960,01.067,551
2022-12-16T06:47:58,42.805,6.029,CST-1368DR,4446,5000,11957,01.068,551
2022-12-16T06:51:00,42.805,6.029,CST-1368DR,4446,5002,11961,01.067,551
2022-12-16T06:54:01,42.805,6.029,CST-1368DR,4446,5003,11963,01.066,551
2022-12-16T06:57:03,42.805,6.029,CST-1368DR,4446,5003,11962,01.066,551
2022-12-16T07:00:05,42.805,6.029,CST-1368DR,4446,5003,11963,01.066,551
2022-12-16T07:03:06,42.805,6.029,CST-1368DR,4446,5003,11964,01.066,551
2022-12-16T07:06:08,42.805,6.029,CST-1368DR,4446,5003,11964,01.066,551
2022-12-16T07:09:09,42.805,6.029,CST-1368DR,4446,5003,11963,01.066,551
2022-12-16T07:12:11,42.805,6.029,CST-1368DR,4446,5002,11961,01.067,551
2022-12-16T07:15:12,42.805,6.029,CST-1368DR,4446,5002,11961,01.067,551
2022-12-16T07:18:14,42.805,6.029,CST-1368DR,4446,5002,11961,01.067,551
2022-12-16T07:21:16,42.805,6.029,CST-1368DR,4446,5004,11965,01.065,551
2022-12-16T07:24:17,42.805,6.029,CST-1368DR,4446,5006,11969,01.064,551
2022-12-16T07:27:19,42.805,6.029,CST-1368DR,4446,5001,11958,01.068,551
2022-12-16T07:30:20,42.805,6.029,CST-1368DR,4446,5003,11963,01.066,551
2022-12-16T07:33:22,42.805,6.029,CST-1368DR,4446,5010,11981,01.060,551
2022-12-16T07:36:24,42.805,6.029,CST-1368DR,4446,5001,11958,01.068,551
2022-12-16T07:39:25,42.805,6.029,CST-1368DR,4446,5009,11977,01.061,551
2022-12-16T07:42:27,42.805,6.029,CST-1368DR,4446,5001,11959,01.067,551
2022-12-16T07:45:28,42.805,6.029,CST-1368DR,4446,4999,11954,01.069,551
2022-12-16T07:48:30,42.805,6.029,CST-1368DR,4446,5002,11961,01.067,551
2022-12-16T07:51:31,42.805,6.029,CST-1368DR,4446,4999,11955,01.069,551
2022-12-16T07:54:33,42.805,6.029,CST-1368DR,4446,5002,11962,01.066,551
2022-12-16T07:57:35,42.805,6.029,CST-1368DR,4446,5000,11956,01.068,551
2022-12-16T08:00:36,42.805,6.029,CST-1368DR,4446,5002,11961,01.067,551
2022-12-16T08:03:38,42.805,6.029,CST-1368DR,4446,5001,11958,01.068,551
2022-12-16T08:06:39,42.805,6.029,CST-1368DR,4446,5003,11964,01.066,551
2022-12-16T08:09:41,42.805,6.029,CST-1368DR,4446,5005,11968,01.064,551
2022-12-16T08:12:43,42.805,6.029,CST-1368DR,4446,5002,11961,01.067,551
2022-12-16T08:15:44,42.805,6.029,CST-1368DR,4446,5001,11958,01.068,551
2022-12-16T08:18:46,42.805,6.029,CST-1368DR,4446,4999,11955,01.069,551
2022-12-16T08:21:47,42.805,6.029,CST-1368DR,4446,5002,11961,01.067,551
2022-12-16T08:24:49,42.805,6.029,CST-1368DR,4446,5002,11961,01.067,551
2022-12-16T08:27:51,42.805,6.029,CST-1368DR,4446,5001,11958,01.068,551
2022-12-16T08:30:52,42.805,6.029,CST-1368DR,4446,5003,11962,01.066,551
2022-12-16T08:33:54,42.805,6.029,CST-1368DR,4446,5002,11961,01.067,551
2022-12-16T08:36:55,42.805,6.029,CST-1368DR,4446,5002,11962,01.066,551
2022-12-16T08:39:57,42.805,6.029,CST-1368DR,4446,5003,11963,01.066,551
2022-12-16T08:42:58,42.805,6.029,CST-1368DR,4446,5003,11963,01.066,551
2022-12-16T08:46:00,42.805,6.029,CST-1368DR,4446,5004,11965,01.065,551
2022-12-16T08:49:02,42.805,6.029,CST-1368DR,4446,5002,11961,01.067,551
2022-12-16T08:52:03,42.805,6.029,CST-1368DR,4446,5003,11963,01.066,551
2022-12-16T08:55:05,42.805,6.029,CST-1368DR,4446,5002,11960,01.067,551
2022-12-16T08:58:06,42.805,6.029,CST-1368DR,4446,5002,11960,01.067,551
2022-12-16T09:01:08,42.805,6.029,CST-1368DR,4446,5000,11956,01.068,551
2022-12-16T09:04:10,42.805,6.029,CST-1368DR,4446,5000,11956,01.068,551
2022-12-16T09:07:11,42.805,6.029,CST-1368DR,4446,5001,11958,01.068,551
2022-12-16T09:10:13,42.805,6.029,CST-1368DR,4446,5001,11958,01.068,551
2022-12-16T09:13:14,42.805,6.029,CST-1368DR,4446,5003,11963,01.066,551
2022-12-16T09:16:16,42.805,6.029,CST-1368DR,4446,5001,11958,01.068,551
2022-12-16T09:19:17,42.805,6.029,CST-1368DR,4446,5001,11959,01.067,551
2022-12-16T09:22:19,42.805,6.029,CST-1368DR,4446,5000,11956,01.068,551
2022-12-16T09:25:21,42.805,6.029,CST-1368DR,4446,5000,11957,01.068,551
2022-12-16T09:28:22,42.805,6.029,CST-1368DR,4446,4998,11952,01.070,551
2022-12-16T09:31:24,42.805,6.029,CST-1368DR,4446,4997,11949,01.071,551
2022-12-16T09:34:25,42.805,6.029,CST-1368DR,4446,4999,11953,01.069,551
2022-12-16T09:37:27,42.805,6.029,CST-1368DR,4446,4997,11950,01.070,551
2022-12-16T09:40:29,42.805,6.029,CST-1368DR,4446,4996,11947,01.071,551
2022-12-16T09:43:30,42.805,6.029,CST-1368DR,4446,4998,11952,01.070,551
2022-12-16T09:46:32,42.805,6.029,CST-1368DR,4446,5000,11956,01.068,551
2022-12-16T09:49:33,42.805,6.029,CST-1368DR,4446,4999,11955,01.069,551
2022-12-16T09:52:35,42.805,6.029,CST-1368DR,4446,5000,11955,01.069,551
2022-12-16T09:55:36,42.805,6.029,CST-1368DR,4446,5000,11956,01.068,551
2022-12-16T09:58:38,42.805,6.029,CST-1368DR,4446,5000,11955,01.069,551
2022-12-16T10:01:40,42.805,6.029,CST-1368DR,4446,5000,11955,01.069,551
2022-12-16T10:04:41,42.805,6.029,CST-1368DR,4446,4999,11953,01.069,551
2022-12-16T10:07:43,42.805,6.029,CST-1368DR,4446,4995,11945,01.072,551
2022-12-16T10:10:44,42.805,6.029,CST-1368DR,4446,5000,11956,01.068,551
2022-12-16T10:13:46,42.805,6.029,CST-1368DR,4446,5002,11960,01.067,551
2022-12-16T10:16:48,42.805,6.029,CST-1368DR,4446,5000,11956,01.068,551
2022-12-16T10:19:49,42.805,6.029,CST-1368DR,4446,4997,11950,01.070,551
2022-12-16T10:22:51,42.805,6.029,CST-1368DR,4446,4999,11953,01.069,551
2022-12-16T10:25:52,42.805,6.029,CST-1368DR,4446,4999,11955,01.069,551
2022-12-16T10:28:54,42.805,6.029,CST-1368DR,4446,4999,11954,01.069,551
2022-12-16T10:31:56,42.805,6.029,CST-1368DR,4446,5000,11955,01.069,551
2022-12-16T10:34:57,42.805,6.029,CST-1368DR,4446,4997,11948,01.071,551
2022-12-16T10:37:59,42.805,6.029,CST-1368DR,4446,4998,11952,01.070,551
2022-12-16T10:41:00,42.805,6.029,CST-1368DR,4446,4999,11954,01.069,551
2022-12-16T10:44:02,42.805,6.029,CST-1368DR,4446,4998,11950,01.070,551
2022-12-16T10:47:03,42.805,6.029,CST-1368DR,4446,4999,11953,01.069,551
2022-12-16T10:50:05,42.805,6.029,CST-1368DR,4446,4998,11952,01.070,551
2022-12-16T10:53:07,42.805,6.029,CST-1368DR,4446,5000,11956,01.068,551
2022-12-16T10:56:08,42.805,6.029,CST-1368DR,4446,5000,11956,01.068,551
2022-12-16T10:59:10,42.805,6.029,CST-1368DR,4446,5001,11958,01.068,551
2022-12-16T11:02:11,42.805,6.029,CST-1368DR,4446,4997,11950,01.070,551
2022-12-16T11:05:13,42.805,6.029,CST-1368DR,4446,4999,11954,01.069,551
2022-12-16T11:08:15,42.805,6.029,CST-1368DR,4446,5000,11956,01.068,551
2022-12-16T11:11:16,42.805,6.029,CST-1368DR,4446,4999,11953,01.069,551
2022-12-16T11:14:18,42.805,6.029,CST-1368DR,4446,4998,11950,01.070,551
2022-12-16T11:17:19,42.805,6.029,CST-1368DR,4446,4997,11950,01.070,551
2022-12-16T11:20:21,42.805,6.029,CST-1368DR,4446,4998,11952,01.070,551
2022-12-16T11:23:22,42.805,6.029,CST-1368DR,4446,4998,11952,01.070,551
2022-12-16T11:26:24,42.805,6.029,CST-1368DR,4446,5000,11955,01.069,551
2022-12-16T11:29:26,42.805,6.029,CST-1368DR,4446,5000,11956,01.068,551
2022-12-16T11:32:27,42.805,6.029,CST-1368DR,4446,4999,11954,01.069,551
2022-12-16T11:35:29,42.805,6.029,CST-1368DR,4446,4999,11953,01.069,551
2022-12-16T11:38:30,42.805,6.029,CST-1368DR,4446,4997,11949,01.071,551
2022-12-16T11:41:32,42.805,6.029,CST-1368DR,4445,4999,11957,01.068,551
2022-12-16T11:44:34,42.805,6.029,CST-1368DR,4446,4998,11952,01.070,551
2022-12-16T11:47:35,42.805,6.029,CST-1368DR,4445,4998,11953,01.069,551
2022-12-16T11:50:37,42.805,6.029,CST-1368DR,4446,4999,11953,01.069,551
2022-12-16T11:53:38,42.805,6.029,CST-1368DR,4446,5002,11961,01.067,551
2022-12-16T11:56:40,42.805,6.029,CST-1368DR,4446,5001,11958,01.068,551
2022-12-16T11:59:41,42.805,6.029,CST-1368DR,4446,4999,11953,01.069,551
2022-12-16T12:02:43,42.805,6.029,CST-1368DR,4446,4999,11953,01.069,551
2022-12-16T12:05:45,42.805,6.029,CST-1368DR,4446,4998,11950,01.070,551
2022-12-16T12:08:46,42.805,6.029,CST-1368DR,4446,4999,11953,01.069,551
2022-12-16T12:11:48,42.805,6.029,CST-1368DR,4446,4999,11953,01.069,551
2022-12-16T12:14:49,42.805,6.029,CST-1368DR,4446,5002,11960,01.067,551
2022-12-16T12:17:51,42.805,6.029,CST-1368DR,4446,4999,11955,01.069,551
2022-12-16T12:20:53,42.805,6.029,CST-1368DR,4446,4999,11954,01.069,551
2022-12-16T12:23:54,42.805,6.029,CST-1368DR,4446,5000,11956,01.068,551
2022-12-16T12:26:56,42.805,6.029,CST-1368DR,4446,5000,11956,01.068,551
2022-12-16T12:29:57,42.805,6.029,CST-1368DR,4446,4997,11950,01.070,551
2022-12-16T12:32:59,42.805,6.029,CST-1368DR,4446,4999,11954,01.069,551
2022-12-16T12:36:00,42.805,6.029,CST-1368DR,4445,4999,11957,01.068,551
2022-12-16T12:39:02,42.805,6.029,CST-1368DR,4446,4998,11952,01.070,551
2022-12-16T12:42:04,42.805,6.029,CST-1368DR,4446,4998,11950,01.070,551
2022-12-16T12:45:05,42.805,6.029,CST-1368DR,4446,4998,11952,01.070,551
2022-12-16T12:48:07,42.805,6.029,CST-1368DR,4445,4998,11953,01.069,551
2022-12-16T12:51:08,42.805,6.029,CST-1368DR,4446,4999,11955,01.069,551
2022-12-16T12:54:10,42.805,6.029,CST-1368DR,4446,4999,11953,01.069,551
2022-12-16T12:57:12,42.805,6.029,CST-1368DR,4446,4998,11950,01.070,551
2022-12-16T13:00:13,42.805,6.029,CST-1368DR,4445,4998,11953,01.069,551
2022-12-16T13:03:15,42.805,6.029,CST-1368DR,4446,4998,11952,01.070,551
2022-12-16T13:06:16,42.805,6.029,CST-1368DR,4446,4999,11953,01.069,551
2022-12-16T13:09:18,42.805,6.029,CST-1368DR,4446,4998,11952,01.070,551
2022-12-16T13:12:20,42.805,6.029,CST-1368DR,4446,4998,11952,01.070,551
2022-12-16T13:15:21,42.805,6.029,CST-1368DR,4446,4998,11952,01.070,551
2022-12-16T13:18:23,42.805,6.029,CST-1368DR,4446,4999,11953,01.069,551
2022-12-16T13:21:24,42.805,6.029,CST-1368DR,4446,5000,11955,01.069,551
2022-12-16T13:24:26,42.805,6.029,CST-1368DR,4446,4998,11950,01.070,551
2022-12-16T13:27:27,42.805,6.029,CST-1368DR,4445,4998,11953,01.069,551
2022-12-16T13:30:29,42.805,6.029,CST-1368DR,4446,4997,11948,01.071,551
2022-12-16T13:33:31,42.805,6.029,CST-1368DR,4445,4995,11946,01.072,551
2022-12-16T13:36:32,42.805,6.029,CST-1368DR,4446,4998,11952,01.070,551
2022-12-16T13:39:34,42.805,6.029,CST-1368DR,4445,4998,11953,01.069,551
2022-12-16T13:42:35,42.805,6.029,CST-1368DR,4445,4998,11954,01.069,551
2022-12-16T13:45:37,42.805,6.029,CST-1368DR,4445,4997,11952,01.070,551
2022-12-16T13:48:39,42.805,6.029,CST-1368DR,4445,4998,11955,01.069,551
2022-12-16T13:51:40,42.805,6.029,CST-1368DR,4445,4998,11953,01.069,551
2022-12-16T13:54:42,42.805,6.029,CST-1368DR,4445,4999,11957,01.068,551
2022-12-16T13:57:43,42.805,6.029,CST-1368DR,4445,4997,11952,01.070,551
2022-12-16T14:00:45,42.805,6.029,CST-1368DR,4445,4999,11956,01.068,551
2022-12-16T14:03:46,42.805,6.029,CST-1368DR,4445,4997,11952,01.070,551
2022-12-16T14:06:48,42.805,6.029,CST-1368DR,4445,4997,11952,01.070,551
2022-12-16T14:09:50,42.805,6.029,CST-1368DR,4445,4998,11954,01.069,551
2022-12-16T14:12:51,42.805,6.029,CST-1368DR,4445,4998,11953,01.069,551
2022-12-16T14:15:53,42.805,6.029,CST-1368DR,4445,4997,11952,01.070,551
2022-12-16T14:18:54,42.805,6.029,CST-1368DR,4445,4999,11957,01.068,551
2022-12-16T14:21:56,42.805,6.029,CST-1368DR,4445,4999,11955,01.069,551
2022-12-16T14:24:58,42.805,6.029,CST-1368DR,4445,4998,11954,01.069,551
2022-12-16T14:27:59,42.805,6.029,CST-1368DR,4445,4997,11952,01.070,551
2022-12-16T14:31:01,42.805,6.029,CST-1368DR,4445,4994,11945,01.072,551
2022-12-16T14:34:02,42.805,6.029,CST-1368DR,4445,4992,11940,01.074,551
2022-12-16T14:37:04,42.805,6.029,CST-1368DR,4445,4992,11939,01.074,551
2022-12-16T14:40:05,42.805,6.029,CST-1368DR,4445,4992,11940,01.074,551
2022-12-16T14:43:07,42.805,6.029,CST-1368DR,4445,4993,11941,01.073,551
2022-12-16T14:46:09,42.805,6.029,CST-1368DR,4445,4997,11952,01.070,551
2022-12-16T14:49:10,42.805,6.029,CST-1368DR,4445,4999,11957,01.068,551
2022-12-16T14:52:12,42.805,6.029,CST-1368DR,4445,4996,11949,01.071,551
2022-12-16T14:55:13,42.805,6.029,CST-1368DR,4445,4999,11956,01.068,551
2022-12-16T14:58:15,42.805,6.029,CST-1368DR,4445,4998,11953,01.069,551
2022-12-16T15:01:17,42.805,6.029,CST-1368DR,4445,4996,11950,01.070,551
2022-12-16T15:04:18,42.805,6.029,CST-1368DR,4445,5000,11958,01.068,551
2022-12-16T15:07:20,42.805,6.029,CST-1368DR,4445,4999,11956,01.068,551
2022-12-16T15:10:21,42.805,6.029,CST-1368DR,4445,4998,11954,01.069,551
2022-12-16T15:13:23,42.805,6.029,CST-1368DR,4445,4999,11955,01.069,551
2022-12-16T15:16:25,42.805,6.029,CST-1368DR,4445,4998,11955,01.069,551
2022-12-16T15:19:26,42.805,6.029,CST-1368DR,4445,4998,11953,01.069,551
2022-12-16T15:22:28,42.805,6.029,CST-1368DR,4445,4998,11955,01.069,551
2022-12-16T15:25:29,42.805,6.029,CST-1368DR,4445,4999,11955,01.069,551
2022-12-16T15:28:31,42.805,6.029,CST-1368DR,4445,4997,11952,01.070,551
2022-12-16T15:31:32,42.805,6.029,CST-1368DR,4445,4997,11951,01.070,551
2022-12-16T15:34:34,42.805,6.029,CST-1368DR,4445,5000,11959,01.067,551
2022-12-16T15:37:36,42.805,6.029,CST-1368DR,4445,4997,11952,01.070,551
2022-12-16T15:40:37,42.805,6.029,CST-1368DR,4445,4997,11951,01.070,551
2022-12-16T15:43:39,42.805,6.029,CST-1368DR,4445,4999,11957,01.068,551
2022-12-16T15:46:40,42.805,6.029,CST-1368DR,4445,4999,11955,01.069,551
2022-12-16T15:49:42,42.805,6.029,CST-1368DR,4445,4997,11952,01.070,551
2022-12-16T15:52:44,42.805,6.029,CST-1368DR,4445,5000,11958,01.068,551
2022-12-16T15:55:45,42.805,6.029,CST-1368DR,4445,4999,11956,01.068,551
2022-12-16T15:58:47,42.805,6.029,CST-1368DR,4445,4995,11947,01.071,551
2022-12-16T16:01:48,42.805,6.029,CST-1368DR,4445,4998,11953,01.069,551
2022-12-16T16:04:50,42.805,6.029,CST-1368DR,4445,4998,11953,01.069,551
2022-12-16T16:07:51,42.805,6.029,CST-1368DR,4445,4997,11952,01.070,551
2022-12-16T16:10:53,42.805,6.029,CST-1368DR,4445,5001,11961,01.067,551
2022-12-16T16:13:55,42.805,6.029,CST-1368DR,4445,4976,11902,01.086,551
2022-12-16T16:16:56,42.805,6.029,CST-1368DR,4445,4979,11907,01.085,551
2022-12-16T16:19:58,42.805,6.029,CST-1368DR,4445,4984,11919,01.081,551
2022-12-16T16:22:59,42.805,6.029,CST-1368DR,4445,4982,11916,01.082,551
2022-12-16T16:26:01,42.805,6.029,CST-1368DR,4445,4984,11921,01.080,551
2022-12-16T16:29:03,42.805,6.029,CST-1368DR,4445,4985,11922,01.080,551
2022-12-16T16:32:04,42.805,6.029,CST-1368DR,4445,4982,11916,01.082,551
2022-12-16T16:35:06,42.805,6.029,CST-1368DR,4445,4981,11912,01.083,551
2022-12-16T16:38:07,42.805,6.029,CST-1368DR,4445,4982,11915,01.082,551